DC1MBB-9 Weather Reports


Display with metric or nautical units.
time (UTC)temp
F
wind
direction
speed
MPH
gust
MPH
rain 1hr
in
rain 24hr
in
rain mn
in
humidity
%
barometer
mb
20260506204629 55 0 0.0 0.0 0.00 0.00 0.00 73 952.0
20260506204029 55 0 0.0 0.0 0.00 0.00 0.00 75 952.0
20260506203428 55 0 0.0 0.0 0.00 0.00 0.00 76 952.0
20260506202827 55 0 0.0 0.0 0.00 0.00 0.00 75 952.0
20260506202226 55 0 0.0 0.0 0.00 0.00 0.00 76 952.0
20260506201626 55 0 0.0 0.0 0.00 0.00 0.00 77 952.0
20260506201025 56 0 0.0 0.0 0.00 0.00 0.00 75 952.0
20260506200424 55 0 0.0 0.0 0.00 0.00 0.00 77 952.0
20260506195823 55 0 0.0 0.0 0.00 0.00 0.00 79 952.0
20260506195223 56 0 0.0 0.0 0.00 0.00 0.00 74 952.0
20260506194622 56 0 0.0 0.0 0.00 0.00 0.00 77 952.0
20260506194021 56 0 0.0 0.0 0.00 0.00 0.00 77 952.0
20260506193420 55 0 0.0 0.0 0.00 0.00 0.00 75 952.0
20260506192820 55 0 0.0 0.0 0.00 0.00 0.00 77 952.0
20260506192219 55 0 0.0 0.0 0.00 0.00 0.00 75 952.0
20260506191618 55 0 0.0 0.0 0.00 0.00 0.00 74 952.0
20260506191017 56 0 0.0 0.0 0.00 0.00 0.00 72 952.0
20260506190417 56 0 0.0 0.0 0.00 0.00 0.00 74 952.0
20260506185816 56 0 0.0 0.0 0.00 0.00 0.00 74 951.0
20260506185215 56 0 0.0 0.0 0.00 0.00 0.00 72 951.0
20260506184614 57 0 0.0 0.0 0.00 0.00 0.00 69 951.0
20260506184013 56 0 0.0 0.0 0.00 0.00 0.00 74 951.0
20260506183413 57 0 0.0 0.0 0.00 0.00 0.00 70 951.0
20260506182812 57 0 0.0 0.0 0.00 0.00 0.00 72 951.0
20260506182211 57 0 0.0 0.0 0.00 0.00 0.00 75 951.0
20260506181610 57 0 0.0 0.0 0.00 0.00 0.00 73 951.0
20260506181010 56 0 0.0 0.0 0.00 0.00 0.00 77 951.0
20260506180409 57 0 0.0 0.0 0.00 0.00 0.00 75 951.0
20260506175808 56 0 0.0 0.0 0.00 0.00 0.00 81 951.0
20260506175207 56 0 0.0 0.0 0.00 0.00 0.00 79 950.0
20260506174607 58 0 0.0 0.0 0.00 0.00 0.00 79 950.0
20260506174006 57 0 0.0 0.0 0.00 0.00 0.00 79 950.0
20260506173405 58 0 0.0 0.0 0.00 0.00 0.00 78 950.0
20260506172804 57 0 0.0 0.0 0.00 0.00 0.00 80 950.0
20260506172203 58 0 0.0 0.0 0.00 0.00 0.00 78 950.0
20260506171603 58 0 0.0 0.0 0.00 0.00 0.00 81 950.0
20260506171002 61 0 0.0 0.0 0.00 0.00 0.00 86 950.0
20260506170401 61 0 0.0 0.0 0.00 0.00 0.00 94 949.0
20260506165800 62 0 0.0 0.0 0.00 0.00 0.00 99 949.0
20260506165200 61 0 0.0 0.0 0.00 0.00 0.00 10 949.0
20260506164559 59 0 0.0 0.0 0.00 0.00 0.00 10 949.0
20260506163958 60 0 0.0 0.0 0.00 0.00 0.00 10 949.0
20260506163357 60 0 0.0 0.0 0.00 0.00 0.00 10 949.0
20260506162756 61 0 0.0 0.0 0.00 0.00 0.00 10 949.0
20260506162156 61 0 0.0 0.0 0.00 0.00 0.00 93 948.0
20260506161555 62 0 0.0 0.0 0.00 0.00 0.00 96 948.0
20260506160954 62 0 0.0 0.0 0.00 0.00 0.00 10 948.0
20260506160353 61 0 0.0 0.0 0.00 0.00 0.00 99 948.0
20260506155753 61 0 0.0 0.0 0.00 0.00 0.00 10 948.0
20260506155152 61 0 0.0 0.0 0.00 0.00 0.00 99 948.0
20260506154551 60 0 0.0 0.0 0.00 0.00 0.00 10 949.0
20260506153950 61 0 0.0 0.0 0.00 0.00 0.00 94 948.0
20260506153350 61 0 0.0 0.0 0.00 0.00 0.00 97 948.0
20260506152749 61 0 0.0 0.0 0.00 0.00 0.00 96 948.0
20260506152148 61 0 0.0 0.0 0.00 0.00 0.00 96 949.0
20260506151547 62 0 0.0 0.0 0.00 0.00 0.00 89 949.0
20260506150946 61 0 0.0 0.0 0.00 0.00 0.00 91 949.0
20260506150346 62 0 0.0 0.0 0.00 0.00 0.00 79 949.0
20260506145745 63 0 0.0 0.0 0.00 0.00 0.00 77 949.0
20260506145144 65 0 0.0 0.0 0.00 0.00 0.00 73 949.0
20260506144543 66 0 0.0 0.0 0.00 0.00 0.00 68 948.0
20260506143943 68 0 0.0 0.0 0.00 0.00 0.00 60 948.0
20260506143342 69 0 0.0 0.0 0.00 0.00 0.00 51 948.0
20260506142741 70 0 0.0 0.0 0.00 0.00 0.00 46 947.0
20260506142140 70 0 0.0 0.0 0.00 0.00 0.00 46 947.0
20260506141539 70 0 0.0 0.0 0.00 0.00 0.00 44 947.0
20260506140939 71 0 0.0 0.0 0.00 0.00 0.00 45 947.0
20260506140338 71 0 0.0 0.0 0.00 0.00 0.00 43 947.0
20260506135737 72 0 0.0 0.0 0.00 0.00 0.00 43 947.0
20260506135137 72 0 0.0 0.0 0.00 0.00 0.00 42 947.0
20260506134535 73 0 0.0 0.0 0.00 0.00 0.00 42 947.0
20260506133935 73 0 0.0 0.0 0.00 0.00 0.00 41 947.0
20260506133334 74 0 0.0 0.0 0.00 0.00 0.00 40 947.0
20260506132733 74 0 0.0 0.0 0.00 0.00 0.00 40 947.0
20260506132132 74 0 0.0 0.0 0.00 0.00 0.00 40 947.0
20260506131532 74 0 0.0 0.0 0.00 0.00 0.00 43 947.0
20260506130931 74 0 0.0 0.0 0.00 0.00 0.00 41 947.0
20260506130330 74 0 0.0 0.0 0.00 0.00 0.00 42 947.0
20260506125729 73 0 0.0 0.0 0.00 0.00 0.00 44 947.0
20260506125128 73 0 0.0 0.0 0.00 0.00 0.00 44 947.0
20260506124528 73 0 0.0 0.0 0.00 0.00 0.00 45 947.0
20260506123927 72 0 0.0 0.0 0.00 0.00 0.00 44 948.0
20260506123326 71 0 0.0 0.0 0.00 0.00 0.00 45 948.0
20260506122725 71 0 0.0 0.0 0.00 0.00 0.00 45 948.0
20260506122125 71 0 0.0 0.0 0.00 0.00 0.00 44 948.0
20260506121524 71 0 0.0 0.0 0.00 0.00 0.00 44 948.0
20260506120923 71 0 0.0 0.0 0.00 0.00 0.00 44 948.0
20260506120322 71 0 0.0 0.0 0.00 0.00 0.00 45 948.0
20260506115721 71 0 0.0 0.0 0.00 0.00 0.00 44 948.0
20260506115121 71 0 0.0 0.0 0.00 0.00 0.00 44 948.0
20260506114520 71 0 0.0 0.0 0.00 0.00 0.00 44 948.0
20260506113919 71 0 0.0 0.0 0.00 0.00 0.00 43 948.0
20260506113318 71 0 0.0 0.0 0.00 0.00 0.00 44 948.0
20260506112717 71 0 0.0 0.0 0.00 0.00 0.00 45 948.0
20260506112117 71 0 0.0 0.0 0.00 0.00 0.00 44 948.0
20260506111516 71 0 0.0 0.0 0.00 0.00 0.00 45 948.0
20260506110915 71 0 0.0 0.0 0.00 0.00 0.00 45 949.0
20260506110314 71 0 0.0 0.0 0.00 0.00 0.00 44 949.0
20260506105714 70 0 0.0 0.0 0.00 0.00 0.00 45 949.0
20260506105113 70 0 0.0 0.0 0.00 0.00 0.00 45 949.0
20260506104512 70 0 0.0 0.0 0.00 0.00 0.00 44 949.0
20260506103911 70 0 0.0 0.0 0.00 0.00 0.00 43 949.0
20260506103310 70 0 0.0 0.0 0.00 0.00 0.00 42 949.0
20260506102710 70 0 0.0 0.0 0.00 0.00 0.00 45 949.0
20260506102109 70 0 0.0 0.0 0.00 0.00 0.00 44 949.0
20260506101508 70 0 0.0 0.0 0.00 0.00 0.00 43 949.0
20260506100907 70 0 0.0 0.0 0.00 0.00 0.00 43 949.0
20260506100306 69 0 0.0 0.0 0.00 0.00 0.00 45 949.0
20260506095706 69 0 0.0 0.0 0.00 0.00 0.00 46 949.0
20260506095105 69 0 0.0 0.0 0.00 0.00 0.00 47 949.0
20260506094504 69 0 0.0 0.0 0.00 0.00 0.00 47 949.0
20260506093903 69 0 0.0 0.0 0.00 0.00 0.00 48 949.0
20260506093303 69 0 0.0 0.0 0.00 0.00 0.00 48 949.0
20260506092702 68 0 0.0 0.0 0.00 0.00 0.00 49 949.0
20260506092101 68 0 0.0 0.0 0.00 0.00 0.00 50 949.0
20260506091500 68 0 0.0 0.0 0.00 0.00 0.00 50 949.0
20260506090859 68 0 0.0 0.0 0.00 0.00 0.00 51 949.0
20260506090259 68 0 0.0 0.0 0.00 0.00 0.00 51 949.0
20260506085658 68 0 0.0 0.0 0.00 0.00 0.00 50 949.0
20260506085057 67 0 0.0 0.0 0.00 0.00 0.00 51 949.0
20260506084456 67 0 0.0 0.0 0.00 0.00 0.00 49 949.0
20260506083855 67 0 0.0 0.0 0.00 0.00 0.00 50 949.0
20260506083255 67 0 0.0 0.0 0.00 0.00 0.00 51 949.0
20260506082053 67 0 0.0 0.0 0.00 0.00 0.00 54 949.0
20260506081452 66 0 0.0 0.0 0.00 0.00 0.00 54 950.0
20260506080852 66 0 0.0 0.0 0.00 0.00 0.00 52 949.0
20260506080251 65 0 0.0 0.0 0.00 0.00 0.00 54 950.0
20260506073247 63 0 0.0 0.0 0.00 0.00 0.00 62 950.0
20260506072646 64 0 0.0 0.0 0.00 0.00 0.00 59 950.0
20260506072045 63 0 0.0 0.0 0.00 0.00 0.00 62 950.0
20260506071445 63 0 0.0 0.0 0.00 0.00 0.00 64 950.0
20260506070844 63 0 0.0 0.0 0.00 0.00 0.00 68 950.0
20260506070243 62 0 0.0 0.0 0.00 0.00 0.00 68 950.0
20260506062038 60 0 0.0 0.0 0.00 0.00 0.00 85 950.0
20260506061437 59 0 0.0 0.0 0.00 0.00 0.00 87 950.0
20260506060836 59 0 0.0 0.0 0.00 0.00 0.00 88 950.0
20260506060235 58 0 0.0 0.0 0.00 0.00 0.00 90 950.0
20260506050828 57 0 0.0 0.0 0.00 0.00 0.00 94 951.0
20260506050228 56 0 0.0 0.0 0.00 0.00 0.00 95 951.0
20260506045026 56 0 0.0 0.0 0.00 0.00 0.00 95 950.0
20260506044425 56 0 0.0 0.0 0.00 0.00 0.00 96 950.0
20260506043825 56 0 0.0 0.0 0.00 0.00 0.00 95 950.0
20260506043224 56 0 0.0 0.0 0.00 0.00 0.00 95 950.0
20260506042623 56 0 0.0 0.0 0.00 0.00 0.00 94 950.0
20260506042022 55 0 0.0 0.0 0.00 0.00 0.00 98 951.0
20260506041422 54 0 0.0 0.0 0.00 0.00 0.00 99 951.0
20260506040821 54 0 0.0 0.0 0.00 0.00 0.00 10 951.0
20260506040220 55 0 0.0 0.0 0.00 0.00 0.00 98 951.0
20260506035619 56 0 0.0 0.0 0.00 0.00 0.00 96 951.0
20260506035019 55 0 0.0 0.0 0.00 0.00 0.00 97 951.0
20260506034418 55 0 0.0 0.0 0.00 0.00 0.00 98 951.0
20260506033817 55 0 0.0 0.0 0.00 0.00 0.00 98 951.0
20260506033216 55 0 0.0 0.0 0.00 0.00 0.00 98 951.0
20260506032615 56 0 0.0 0.0 0.00 0.00 0.00 95 951.0
20260506032015 55 0 0.0 0.0 0.00 0.00 0.00 10 951.0
20260506031414 56 0 0.0 0.0 0.00 0.00 0.00 95 951.0
20260506030813 56 0 0.0 0.0 0.00 0.00 0.00 96 951.0
20260506030212 56 0 0.0 0.0 0.00 0.00 0.00 98 951.0
20260506025612 56 0 0.0 0.0 0.00 0.00 0.00 99 951.0
20260506025011 55 0 0.0 0.0 0.00 0.00 0.00 10 951.0
20260506024410 55 0 0.0 0.0 0.00 0.00 0.00 10 951.0
20260506023809 54 0 0.0 0.0 0.00 0.00 0.00 10 951.0
20260506023209 54 0 0.0 0.0 0.00 0.00 0.00 10 951.0
20260506022608 55 0 0.0 0.0 0.00 0.00 0.00 10 951.0
20260506022007 55 0 0.0 0.0 0.00 0.00 0.00 99 951.0
20260506021406 57 0 0.0 0.0 0.00 0.00 0.00 94 951.0
20260506020805 56 0 0.0 0.0 0.00 0.00 0.00 96 951.0
20260506020205 57 0 0.0 0.0 0.00 0.00 0.00 96 951.0
20260506015604 57 0 0.0 0.0 0.00 0.00 0.00 97 951.0
20260506015003 57 0 0.0 0.0 0.00 0.00 0.00 94 951.0
20260506014402 57 0 0.0 0.0 0.00 0.00 0.00 94 951.0
20260506013802 57 0 0.0 0.0 0.00 0.00 0.00 95 951.0
20260506013201 57 0 0.0 0.0 0.00 0.00 0.00 95 951.0
20260506012600 58 0 0.0 0.0 0.00 0.00 0.00 94 951.0
20260506011959 58 0 0.0 0.0 0.00 0.00 0.00 94 951.0
20260506011359 58 0 0.0 0.0 0.00 0.00 0.00 95 951.0
20260506010758 58 0 0.0 0.0 0.00 0.00 0.00 94 951.0
20260506010157 58 0 0.0 0.0 0.00 0.00 0.00 96 951.0
20260506005556 58 0 0.0 0.0 0.00 0.00 0.00 96 951.0
20260506004955 59 0 0.0 0.0 0.00 0.00 0.00 94 951.0
20260506004355 58 0 0.0 0.0 0.00 0.00 0.00 95 951.0
20260506003754 59 0 0.0 0.0 0.00 0.00 0.00 96 951.0
20260506003153 59 0 0.0 0.0 0.00 0.00 0.00 98 951.0
20260506002552 58 0 0.0 0.0 0.00 0.00 0.00 99 952.0
20260506001952 59 0 0.0 0.0 0.00 0.00 0.00 98 952.0
20260506001351 58 0 0.0 0.0 0.00 0.00 0.00 99 952.0
20260506000750 58 0 0.0 0.0 0.00 0.00 0.00 99 952.0
20260506000149 59 0 0.0 0.0 0.00 0.00 0.00 96 952.0
20260505235549 59 0 0.0 0.0 0.00 0.00 0.00 96 952.0
20260505234948 59 0 0.0 0.0 0.00 0.00 0.00 97 952.0
20260505234347 59 0 0.0 0.0 0.00 0.00 0.00 96 952.0
20260505233746 60 0 0.0 0.0 0.00 0.00 0.00 94 952.0
20260505233146 59 0 0.0 0.0 0.00 0.00 0.00 96 952.0
20260505232545 59 0 0.0 0.0 0.00 0.00 0.00 96 952.0
20260505231944 60 0 0.0 0.0 0.00 0.00 0.00 98 952.0
20260505231343 59 0 0.0 0.0 0.00 0.00 0.00 99 952.0
20260505230142 59 0 0.0 0.0 0.00 0.00 0.00 10 952.0
20260505224940 59 0 0.0 0.0 0.00 0.00 0.00 10 952.0
20260505224339 59 0 0.0 0.0 0.00 0.00 0.00 10 952.0
20260505223739 59 0 0.0 0.0 0.00 0.00 0.00 10 952.0
20260505223138 59 0 0.0 0.0 0.00 0.00 0.00 10 952.0
20260505222537 59 0 0.0 0.0 0.00 0.00 0.00 10 952.0
20260505221936 59 0 0.0 0.0 0.00 0.00 0.00 10 952.0
20260505221335 59 0 0.0 0.0 0.00 0.00 0.00 10 952.0
20260505220735 60 0 0.0 0.0 0.00 0.00 0.00 10 952.0
20260505220134 60 0 0.0 0.0 0.00 0.00 0.00 98 952.0
20260505215534 60 0 0.0 0.0 0.00 0.00 0.00 10 952.0
20260505214932 60 0 0.0 0.0 0.00 0.00 0.00 98 952.0
20260505214331 60 0 0.0 0.0 0.00 0.00 0.00 99 952.0
20260505213731 61 0 0.0 0.0 0.00 0.00 0.00 98 952.0
20260505213130 60 0 0.0 0.0 0.00 0.00 0.00 10 952.0
20260505212529 60 0 0.0 0.0 0.00 0.00 0.00 99 952.0
20260505211928 60 0 0.0 0.0 0.00 0.00 0.00 10 952.0
20260505211328 61 0 0.0 0.0 0.00 0.00 0.00 97 952.0
20260505210727 61 0 0.0 0.0 0.00 0.00 0.00 10 952.0
20260505210126 61 0 0.0 0.0 0.00 0.00 0.00 88 952.0
20260505205525 62 0 0.0 0.0 0.00 0.00 0.00 90 952.0
20260505204924 62 0 0.0 0.0 0.00 0.00 0.00 80 952.0